When you browse on this site, cookies collect data to enhance your experience and personalize the content and advertising you see.
Visit our Privacy Policy to learn more. By continuing to use the site, you agree to this use of cookies and data.
  • In Hungary
  • List of Countries
  • For 7 days
  • Water Temperature
  • Weather Map
  • News
  • Weather Widgets
  • user-avatar
    Login

    Hourly Weather Amtacker

    Today, 8 December, Sunday

    Time Temperature Precipitation Wind Pressure Humidity
    00:00 +5°C° 0 mm 1 mps 726 mmHg 95%
    01:00 +4°C° 0 mm 1 mps 726 mmHg 96%
    02:00 +4°C° 0 mm 1 mps 725 mmHg 95%
    03:00 +4°C° 0 mm 1 mps 725 mmHg 95%
    04:00 +3°C° 0 mm 2 mps 724 mmHg 95%
    05:00 +3°C° 0 mm 2 mps 724 mmHg 94%
    06:00 +3°C° 0 mm 2 mps 724 mmHg 94%
    07:00 +3°C° 0 mm 2 mps 723 mmHg 93%
    08:00 +3°C° 0 mm 2 mps 723 mmHg 91%
    09:00 +3°C° 0 mm 3 mps 723 mmHg 88%
    10:00 +4°C° 0 mm 3 mps 723 mmHg 86%
    11:00 +5°C° 0 mm 4 mps 723 mmHg 84%
    12:00 +6°C° 0 mm 4 mps 722 mmHg 81%
    13:00 +8°C° 0 mm 4 mps 722 mmHg 78%
    14:00 +7°C° 0 mm 4 mps 721 mmHg 80%
    15:00 +7°C° 0 mm 4 mps 721 mmHg 81%
    16:00 +8°C° 0 mm 3 mps 720 mmHg 82%
    17:00 +7°C° 0.2 mm 3 mps 720 mmHg 82%
    18:00 +7°C° 0.2 mm 3 mps 720 mmHg 82%
    19:00 +7°C° 0.2 mm 3 mps 719 mmHg 81%
    20:00 +7°C° 0.5 mm 3 mps 719 mmHg 82%
    21:00 +6°C° 0.5 mm 4 mps 719 mmHg 83%
    22:00 +7°C° 0.5 mm 5 mps 719 mmHg 84%
    23:00 +7°C° 0.2 mm 4 mps 719 mmHg 84%

    Tomorrow, 9 December, Monday

    Time Temperature Precipitation Wind Pressure Humidity
    00:00 +6°C° 0.2 mm 4 mps 719 mmHg 85%
    01:00 +6°C° 0.2 mm 4 mps 719 mmHg 85%
    02:00 +6°C° 0.9 mm 4 mps 718 mmHg 84%
    03:00 +5°C° 0.9 mm 5 mps 718 mmHg 84%
    04:00 +3°C° 0.9 mm 5 mps 718 mmHg 83%
    05:00 +3°C° 0.1 mm 5 mps 718 mmHg 83%
    06:00 +3°C° 0.1 mm 5 mps 718 mmHg 84%
    07:00 +3°C° 0.1 mm 4 mps 718 mmHg 84%
    08:00 +3°C° 0 mm 5 mps 718 mmHg 83%
    09:00 +3°C° 0 mm 6 mps 717 mmHg 82%
    10:00 +4°C° 0 mm 7 mps 717 mmHg 81%
    11:00 +4°C° 0.3 mm 7 mps 717 mmHg 83%
    12:00 +2°C° 0.3 mm 8 mps 717 mmHg 85%
    13:00 +2°C° 0.3 mm 8 mps 717 mmHg 87%
    14:00 +2°C° 0.6 mm 8 mps 717 mmHg 87%
    15:00 +3°C° 0.6 mm 7 mps 718 mmHg 87%
    16:00 +2°C° 0.6 mm 7 mps 718 mmHg 87%
    17:00 +2°C° 0.4 mm 7 mps 719 mmHg 89%
    18:00 +2°C° 0.4 mm 7 mps 720 mmHg 92%
    19:00 0°C° 0.4 mm 7 mps 721 mmHg 94%
    20:00 +1°C° 0.8 mm 6 mps 722 mmHg 94%
    21:00 +1°C° 0.8 mm 5 mps 724 mmHg 94%
    22:00 +1°C° 0.8 mm 4 mps 725 mmHg 95%
    23:00 +2°C° 0.3 mm 3 mps 726 mmHg 94%

    Day after tomorrow, 10 December, Tuesday

    Time Temperature Precipitation Wind Pressure Humidity
    00:00 +1°C° 0.3 mm 3 mps 726 mmHg 94%
    01:00 +2°C° 0.3 mm 2 mps 727 mmHg 93%
    02:00 +2°C° 0.1 mm 2 mps 728 mmHg 94%
    03:00 +1°C° 0.1 mm 2 mps 729 mmHg 95%
    04:00 +1°C° 0.1 mm 2 mps 729 mmHg 95%
    05:00 +1°C° 0.1 mm 2 mps 730 mmHg 95%
    06:00 -1°C° 0.1 mm 2 mps 730 mmHg 95%
    07:00 +1°C° 0.1 mm 1 mps 731 mmHg 95%
    08:00 +1°C° 0 mm 1 mps 731 mmHg 93%
    09:00 +2°C° 0 mm 1 mps 731 mmHg 91%
    10:00 +2°C° 0 mm 1 mps 732 mmHg 89%
    11:00 +3°C° 0 mm 1 mps 731 mmHg 85%
    12:00 +4°C° 0 mm 1 mps 731 mmHg 82%
    13:00 +4°C° 0 mm 1 mps 731 mmHg 78%
    14:00 +4°C° 0 mm 1 mps 730 mmHg 81%
    15:00 +3°C° 0 mm 1 mps 730 mmHg 84%
    16:00 +1°C° 0 mm 0 mps 729 mmHg 87%
    17:00 +1°C° 0 mm 1 mps 729 mmHg 88%
    18:00 0°C° 0 mm 1 mps 729 mmHg 90%
    19:00 0°C° 0 mm 1 mps 728 mmHg 92%
    20:00 -2°C° 0 mm 0 mps 728 mmHg 91%
    21:00 -2°C° 0 mm 0 mps 727 mmHg 90%
    22:00 -2°C° 0 mm 0 mps 727 mmHg 89%
    23:00 -2°C° 0 mm 0 mps 727 mmHg 88%

    11 December, Wednesday

    Time Temperature Precipitation Wind Pressure Humidity
    00:00 -2°C° 0 mm 0 mps 726 mmHg 86%
    01:00 -2°C° 0 mm 0 mps 726 mmHg 85%
    02:00 -1°C° 0 mm 1 mps 725 mmHg 83%
    03:00 -1°C° 0 mm 1 mps 725 mmHg 82%
    04:00 -1°C° 0 mm 1 mps 724 mmHg 80%
    05:00 -1°C° 0 mm 1 mps 724 mmHg 78%
    06:00 -1°C° 0 mm 0 mps 724 mmHg 76%
    07:00 -1°C° 0 mm 0 mps 724 mmHg 73%
    08:00 0°C° 0 mm 0 mps 723 mmHg 70%
    09:00 +1°C° 0 mm 0 mps 723 mmHg 66%
    10:00 +2°C° 0 mm 0 mps 723 mmHg 62%
    11:00 +2°C° 0 mm 0 mps 722 mmHg 61%
    12:00 +3°C° 0 mm 0 mps 722 mmHg 60%
    13:00 +4°C° 0 mm 0 mps 721 mmHg 59%
    14:00 +5°C° 0.3 mm 1 mps 721 mmHg 67%
    15:00 +4°C° 0.3 mm 1 mps 721 mmHg 75%
    16:00 +4°C° 0.3 mm 1 mps 720 mmHg 83%
    17:00 +3°C° 0.7 mm 2 mps 721 mmHg 87%
    18:00 +3°C° 0.7 mm 2 mps 721 mmHg 91%
    19:00 +2°C° 0.7 mm 3 mps 721 mmHg 95%
    20:00 +2°C° 0.4 mm 3 mps 721 mmHg 94%
    21:00 +2°C° 0.4 mm 3 mps 721 mmHg 94%
    22:00 +2°C° 0.4 mm 2 mps 721 mmHg 93%
    23:00 +2°C° 0 mm 2 mps 721 mmHg 94%

    12 December, Thursday

    Time Temperature Precipitation Wind Pressure Humidity
    00:00 +2°C° 0 mm 2 mps 720 mmHg 95%
    01:00 +1°C° 0 mm 2 mps 720 mmHg 96%
    02:00 +1°C° 0 mm 2 mps 719 mmHg 95%
    03:00 +1°C° 0 mm 2 mps 719 mmHg 94%
    04:00 +1°C° 0 mm 2 mps 719 mmHg 93%
    05:00 0°C° 0.6 mm 3 mps 719 mmHg 94%
    06:00 -1°C° 0.6 mm 4 mps 720 mmHg 95%
    07:00 -1°C° 0.6 mm 4 mps 720 mmHg 96%
    08:00 -1°C° 0.4 mm 5 mps 721 mmHg 95%
    09:00 0°C° 0.4 mm 5 mps 721 mmHg 94%
    10:00 0°C° 0.4 mm 5 mps 722 mmHg 93%
    11:00 0°C° 0.1 mm 5 mps 722 mmHg 88%
    12:00 +1°C° 0.1 mm 5 mps 722 mmHg 84%
    13:00 +1°C° 0.1 mm 5 mps 722 mmHg 79%
    14:00 +1°C° 0.1 mm 4 mps 722 mmHg 82%
    15:00 +1°C° 0.1 mm 3 mps 722 mmHg 85%
    16:00 +1°C° 0.1 mm 2 mps 722 mmHg 87%
    17:00 +1°C° 0 mm 2 mps 722 mmHg 88%
    18:00 -1°C° 0 mm 2 mps 722 mmHg 90%
    19:00 -1°C° 0 mm 2 mps 721 mmHg 91%
    20:00 -2°C° 0 mm 2 mps 721 mmHg 90%
    21:00 -2°C° 0 mm 2 mps 720 mmHg 89%
    22:00 -2°C° 0 mm 2 mps 719 mmHg 87%
    23:00 -2°C° 0 mm 2 mps 718 mmHg 86%

    13 December, Friday

    Time Temperature Precipitation Wind Pressure Humidity
    00:00 0°C° 0 mm 1 mps 717 mmHg 84%
    01:00 +1°C° 0 mm 1 mps 715 mmHg 82%
    02:00 +1°C° 0.6 mm 1 mps 714 mmHg 86%
    03:00 -1°C° 0.6 mm 2 mps 713 mmHg 89%
    04:00 -1°C° 0.6 mm 2 mps 712 mmHg 93%
    05:00 0°C° 2 mm 3 mps 711 mmHg 93%
    06:00 0°C° 2 mm 3 mps 711 mmHg 94%
    07:00 0°C° 2 mm 4 mps 710 mmHg 95%
    08:00 +1°C° 1.9 mm 5 mps 710 mmHg 94%
    09:00 +2°C° 1.9 mm 6 mps 711 mmHg 92%
    10:00 +3°C° 1.9 mm 7 mps 711 mmHg 91%
    11:00 +4°C° 0.5 mm 7 mps 711 mmHg 90%
    12:00 +4°C° 0.5 mm 7 mps 711 mmHg 88%
    13:00 +5°C° 0.5 mm 7 mps 711 mmHg 87%
    14:00 +4°C° 0.3 mm 6 mps 711 mmHg 88%
    15:00 +5°C° 0.3 mm 5 mps 711 mmHg 89%
    16:00 +5°C° 0.3 mm 5 mps 711 mmHg 90%
    17:00 +5°C° 0.4 mm 5 mps 711 mmHg 90%
    18:00 +3°C° 0.4 mm 5 mps 711 mmHg 90%
    19:00 +3°C° 0.4 mm 5 mps 712 mmHg 90%
    20:00 +4°C° 1 mm 4 mps 712 mmHg 93%
    21:00 +4°C° 1 mm 4 mps 712 mmHg 95%
    22:00 +5°C° 1 mm 3 mps 712 mmHg 97%
    23:00 +5°C° 0.9 mm 3 mps 711 mmHg 97%
    Show more